Colorado Springs, CO

12:09 AM MST on December 13, 2017 (GMT -0700)
City Of Colorado Springs Municipal

Weather History for KCOS - September, 2013

Change the Weather History Date:

Saturday, September 28, 2013

  Actual Average Record
Temperature  
Mean Temperature 50 °F 56 °F  
Max Temperature 67 °F 70 °F 88 °F (2010)
Min Temperature 33 °F 42 °F 21 °F (1936)
Degree Days  
Heating Degree Days 15 9  
Month to date heating degree days 67 140  
Since 1 July heating degree days 77 171  
Cooling Degree Days 0 0  
Month to date cooling degree days 90 35  
Year to date cooling degree days 692 453  
Growing Degree Days 2 (Base 50)    
Moisture  
Dew Point 23 °F    
Average Humidity 38    
Maximum Humidity 59    
Minimum Humidity 16    
Precipitation  
Precipitation 0.00 in 0.02 in 0.53 in (1959)
Month to date precipitation 4.80 1.15  
Year to date precipitation 18.46 14.94  
Snow  
Snow 0.00 in 0.10 in 5.00 in (1936)
Month to date snowfall T 0.2  
Since 1 July snowfall T 0.2  
Since 1 September snowfall T 0.2  
Snow Depth 0.00 in    
Sea Level Pressure  
Sea Level Pressure 30.08 in    
Wind  
Wind Speed 7 mph (SSE)    
Max Wind Speed 20 mph    
Max Gust Speed 25 mph    
Visibility 10 miles    
Events      
T = Trace of Precipitation, MM = Missing Value Source: NWS Daily Summary

Daily Weather History Graph

Daily Weather History Graph

Search for Another Location

Airport or City:

Trip Planner

Search our weather history database for the weather conditions in past years. The results will help you decide how hot, cold, wet, or windy it might be!

Date:

Astronomy

Sep. 28, 2013 Rise Set
Actual Time 6:52 AM MDT 6:45 PM MDT
Civil Twilight 6:25 AM MDT 7:12 PM MDT
Nautical Twilight 5:54 AM MDT 7:43 PM MDT
Astronomical Twilight 5:23 AM MDT 8:14 PM MDT
Moon 12:44 AM MDT (9/28) 3:03 PM MDT (9/28)
Length of Visible Light 12h 46m
Length of Day
11h 53m
Waning Crescent, 35% of the Moon is Illuminated
Sep 28
Waning Crescent
Oct 4
New
Oct 11
First Quarter
Oct 18
Full
Oct 26
Last Quarter

Hourly Weather History & Observations

Time (MDT) Temp. Windchill Dew Point Humidity Pressure Visibility Wind Dir Wind Speed Gust Speed Precip Events Conditions
12:54 AM 46.9 °F - 21.0 °F 36% 29.85 in 10.0 mi NW 17.3 mph 21.9 mph N/A   Clear
1:54 AM 44.1 °F 41.5 °F 21.0 °F 40% 29.91 in 10.0 mi North 4.6 mph - N/A   Clear
2:54 AM 46.0 °F 40.2 °F 18.0 °F 33% 29.97 in 10.0 mi NW 12.7 mph 25.3 mph N/A   Clear
3:54 AM 41.0 °F 35.8 °F 21.0 °F 45% 30.01 in 10.0 mi North 8.1 mph - N/A   Clear
4:54 AM 39.9 °F - 21.0 °F 47% 30.03 in 10.0 mi Calm Calm - N/A   Clear
5:54 AM 37.9 °F 32.7 °F 21.9 °F 53% 30.08 in 10.0 mi NW 6.9 mph - N/A   Clear
6:54 AM 37.0 °F 34.5 °F 24.1 °F 59% 30.13 in 10.0 mi South 3.5 mph - N/A   Clear
7:54 AM 39.0 °F 36.8 °F 26.1 °F 60% 30.14 in 10.0 mi NW 3.5 mph - N/A   Clear
8:54 AM 46.0 °F 43.9 °F 24.1 °F 42% 30.12 in 10.0 mi SSE 4.6 mph - N/A   Clear
9:54 AM 50.0 °F - 21.9 °F 33% 30.12 in 10.0 mi SE 5.8 mph - N/A   Clear
10:54 AM 53.1 °F - 24.1 °F 32% 30.14 in 10.0 mi SSE 5.8 mph - N/A   Clear
11:54 AM 55.0 °F - 26.1 °F 33% 30.12 in 10.0 mi South 8.1 mph - N/A   Clear
12:54 PM 59.0 °F - 26.1 °F 28% 30.08 in 10.0 mi Variable 5.8 mph - N/A   Clear
1:54 PM 63.0 °F - 26.1 °F 25% 30.05 in 10.0 mi South 10.4 mph - N/A   Clear
2:54 PM 66.0 °F - 21.9 °F 19% 30.02 in 10.0 mi South 9.2 mph 18.4 mph N/A   Clear
3:54 PM 66.0 °F - 21.0 °F 18% 30.04 in 10.0 mi South 11.5 mph - N/A   Clear
4:54 PM 66.0 °F - 19.0 °F 17% 30.05 in 10.0 mi SSE 13.8 mph - N/A   Partly Cloudy
5:54 PM 63.0 °F - 19.9 °F 19% 30.07 in 10.0 mi SSE 12.7 mph - N/A   Clear
6:54 PM 57.9 °F - 23.0 °F 26% 30.12 in 10.0 mi ESE 9.2 mph - N/A   Clear
7:54 PM 54.0 °F - 23.0 °F 30% 30.15 in 10.0 mi ESE 8.1 mph - N/A   Clear
8:54 PM 52.0 °F - 23.0 °F 32% 30.16 in 10.0 mi Calm Calm - N/A   Clear
9:54 PM 46.0 °F - 26.1 °F 46% 30.17 in 10.0 mi Calm Calm - N/A   Clear
10:54 PM 46.9 °F - 23.0 °F 39% 30.15 in 10.0 mi Calm Calm - N/A   Clear
11:54 PM 42.1 °F 37.7 °F 26.1 °F 53% 30.14 in 10.0 mi North 6.9 mph - N/A   Clear